,,Stat6,,Stat2,,Stat8,,Stat9,,Stat10,,Wind1,,Wind1,
time,status,PA1M_AVG,status,PR1M_SUM,status,RH1M_AVG,status,SR1M_AVG,status,TA1M_AVG,status,W1dAve1m,status,W1sAve1m,
2005-01-13, 00:00:01,VALID,918.886,VALID,0,VALID,98.8596,VALID,0,VALID,19.9671,VALID,151,VALID,0.00351562,
2005-01-13, 00:01:01,VALID,918.888,VALID,0,VALID,98.7897,VALID,0.0339617,VALID,19.9603,VALID,151,VALID,0.0824219,
2005-01-13, 00:02:01,VALID,918.881,VALID,0,VALID,98.7744,VALID,0,VALID,19.9708,VALID,151,VALID,0.209604,
2005-01-13, 00:03:01,VALID,918.874,VALID,0,VALID,98.3662,VALID,-0.0169808,VALID,19.9551,VALID,151,VALID,0,
2005-01-13, 00:04:01,VALID,918.871,VALID,0,VALID,98.0356,VALID,-0.0169808,VALID,19.8965,VALID,151,VALID,0,
2005-01-13, 00:05:01,VALID,918.85,VALID,0,VALID,97.7737,VALID,-0.0169808,VALID,19.8289,VALID,151,VALID,0,
2005-01-13, 00:06:01,VALID,918.846,VALID,0,VALID,97.5283,VALID,0,VALID,19.735,VALID,151,VALID,0.242759,
2005-01-13, 00:07:01,VALID,918.827,VALID,0,VALID,97.4723,VALID,-0.0169808,VALID,19.6543,VALID,150,VALID,0.390625,
2005-01-13, 00:08:01,VALID,918.819,VALID,0,VALID,97.321,VALID,-0.0169808,VALID,19.5606,VALID,138,VALID,0.446615,
2005-01-13, 00:09:01,VALID,918.806,VALID,0,VALID,97.4977,VALID,0,VALID,19.4958,VALID,134,VALID,0.422461,
2005-01-13, 00:10:01,VALID,918.804,VALID,0,VALID,97.6402,VALID,0,VALID,19.4277,VALID,134,VALID,0.34747,
2005-01-13, 00:11:01,VALID,918.802,VALID,0,VALID,97.4227,VALID,0,VALID,19.3604,VALID,129,VALID,0.425145,
2005-01-13, 00:12:01,VALID,918.793,VALID,0,VALID,97.691,VALID,0,VALID,19.3189,VALID,74,VALID,0.633743,
2005-01-13, 00:13:01,VALID,918.779,VALID,0,VALID,97.5524,VALID,0,VALID,19.2439,VALID,72,VALID,0.549782,
2005-01-13, 00:14:01,VALID,918.758,VALID,0,VALID,97.7381,VALID,0,VALID,19.1791,VALID,64,VALID,0.676599,
2005-01-13, 00:15:01,VALID,918.736,VALID,0,VALID,98.5366,VALID,0,VALID,19.1768,VALID,54,VALID,0.757813,
2005-01-13, 00:16:01,VALID,918.719,VALID,0,VALID,99.2742,VALID,0,VALID,19.2086,VALID,50,VALID,0.606027,
2005-01-13, 00:17:01,VALID,918.699,VALID,0,VALID,99.676,VALID,0.0169808,VALID,19.231,VALID,50,VALID,0.618945,
2005-01-13, 00:18:01,VALID,918.682,VALID,0,VALID,99.8706,VALID,0,VALID,19.2538,VALID,49,VALID,0.613567,
2005-01-13, 00:19:01,VALID,918.674,VALID,0,VALID,99.7345,VALID,-0.0169808,VALID,19.2476,VALID,48,VALID,0.687686,
2005-01-13, 00:20:00,VALID,918.655,VALID,0,VALID,99.7459,VALID,-0.0169808,VALID,19.2377,VALID,48,VALID,0.792014,
2005-01-13, 00:21:00,VALID,918.646,VALID,0,VALID,99.8754,VALID,0,VALID,19.2675,VALID,48,VALID,0.818824,
2005-01-13, 00:22:00,VALID,918.629,VALID,0,VALID,100,VALID,0,VALID,19.3281,VALID,48,VALID,0.921342,
2005-01-13, 00:23:00,VALID,918.617,VALID,0,VALID,100,VALID,-0.0169808,VALID,19.3966,VALID,48,VALID,0.906994,
2005-01-13, 00:24:00,VALID,918.618,VALID,0,VALID,100,VALID,0,VALID,19.4538,VALID,54,VALID,0.927144,
2005-01-13, 00:25:00,VALID,918.6,VALID,0,VALID,100,VALID,-0.0169808,VALID,19.5422,VALID,54,VALID,0.897195,
2005-01-13, 00:26:00,VALID,918.585,VALID,0,VALID,100,VALID,0,VALID,19.6028,VALID,57,VALID,0.988467,
2005-01-13, 00:27:00,VALID,918.573,VALID,0,VALID,100,VALID,0,VALID,19.6585,VALID,63,VALID,0.932776,
2005-01-13, 00:28:00,VALID,918.559,VALID,0,VALID,100,VALID,-0.0169808,VALID,19.6804,VALID,65,VALID,0.791726,
2005-01-13, 00:29:00,VALID,918.573,VALID,0,VALID,100,VALID,0,VALID,19.7062,VALID,65,VALID,0.683494,
2005-01-13, 00:30:00,VALID,918.574,VALID,0,VALID,100,VALID,-0.0339617,VALID,19.7037,VALID,72,VALID,0.619284,
2005-01-13, 00:31:00,VALID,918.581,VALID,0,VALID,100,VALID,-0.0339617,VALID,19.69,VALID,83,VALID,0.559451,
2005-01-13, 00:32:00,VALID,918.585,VALID,0,VALID,100,VALID,-0.0169808,VALID,19.69,VALID,99,VALID,0.514881,
2005-01-13, 00:33:00,VALID,918.592,VALID,0,VALID,100,VALID,0,VALID,19.6997,VALID,100,VALID,0.552689,
2005-01-13, 00:34:00,VALID,918.571,VALID,0,VALID,100,VALID,0,VALID,19.693,VALID,101,VALID,0.61101,
2005-01-13, 00:35:00,VALID,918.574,VALID,0,VALID,100,VALID,-0.0509425,VALID,19.7064,VALID,102,VALID,0.524439,
2005-01-13, 00:36:00,VALID,918.565,VALID,0,VALID,99.9931,VALID,-0.0509425,VALID,19.7131,VALID,102,VALID,0.423735,
2005-01-13, 00:37:00,VALID,918.562,VALID,0,VALID,99.9761,VALID,-0.0169808,VALID,19.7293,VALID,103,VALID,0.579055,
2005-01-13, 00:38:00,VALID,918.536,VALID,0,VALID,99.9977,VALID,-0.0339617,VALID,19.7253,VALID,103,VALID,0.520833,
2005-01-13, 00:39:00,VALID,918.527,VALID,0,VALID,100,VALID,-0.0509425,VALID,19.7514,VALID,108,VALID,0.528773,
2005-01-13, 00:40:00,VALID,918.52,VALID,0,VALID,100,VALID,-0.0169808,VALID,19.7939,VALID,111,VALID,0.185547,
2005-01-13, 00:41:00,VALID,918.509,VALID,0,VALID,99.9072,VALID,-0.0509425,VALID,19.8058,VALID,111,VALID,0.00223214,
2005-01-13, 00:42:00,VALID,918.48,VALID,0,VALID,99.7434,VALID,-0.0339617,VALID,19.8093,VALID,111,VALID,0,
2005-01-13, 00:43:00,VALID,918.461,VALID,0,VALID,99.6925,VALID,-0.0169808,VALID,19.8319,VALID,111,VALID,0.0134943,
2005-01-13, 00:44:00,VALID,918.449,VALID,0,VALID,99.6099,VALID,-0.0509425,VALID,19.8545,VALID,111,VALID,0,
2005-01-13, 00:45:00,VALID,918.432,VALID,0,VALID,99.4878,VALID,-0.0169808,VALID,19.8707,VALID,111,VALID,0,
2005-01-13, 00:46:00,VALID,918.433,VALID,0,VALID,99.3823,VALID,-0.0169808,VALID,19.8769,VALID,111,VALID,0,
2005-01-13, 00:47:00,VALID,918.426,VALID,0,VALID,99.3314,VALID,-0.0509425,VALID,19.8938,VALID,111,VALID,0,
2005-01-13, 00:48:00,VALID,918.429,VALID,0,VALID,99.264,VALID,-0.0679233,VALID,19.8965,VALID,111,VALID,0,
2005-01-13, 00:49:00,VALID,918.422,VALID,0,VALID,98.7566,VALID,-0.0169808,VALID,19.8905,VALID,111,VALID,0,
2005-01-13, 00:50:00,VALID,918.413,VALID,0,VALID,98.2671,VALID,0,VALID,19.8448,VALID,111,VALID,0,
2005-01-13, 00:51:00,VALID,918.417,VALID,0,VALID,98.1297,VALID,0,VALID,19.8254,VALID,111,VALID,0,
2005-01-13, 00:52:00,VALID,918.401,VALID,0,VALID,98.1361,VALID,-0.0169808,VALID,19.8287,VALID,111,VALID,0,
2005-01-13, 00:53:00,VALID,918.403,VALID,0,VALID,98.295,VALID,0,VALID,19.8153,VALID,111,VALID,0,
2005-01-13, 00:54:00,VALID,918.395,VALID,0,VALID,98.4196,VALID,0,VALID,19.8384,VALID,111,VALID,0.0181641,
2005-01-13, 00:55:00,VALID,918.392,VALID,0,VALID,98.5494,VALID,0,VALID,19.8575,VALID,111,VALID,0.381611,
2005-01-13, 00:56:00,VALID,918.378,VALID,0,VALID,98.4425,VALID,0,VALID,19.8704,VALID,111,VALID,0.46689,
2005-01-13, 00:57:00,VALID,918.365,VALID,0,VALID,98.1857,VALID,0,VALID,19.8707,VALID,78,VALID,0.752131,
2005-01-13, 00:58:00,VALID,918.346,VALID,0,VALID,98.0954,VALID,-0.0339617,VALID,19.851,VALID,70,VALID,0.887019,
2005-01-13, 00:59:00,VALID,918.332,VALID,0,VALID,98.4196,VALID,0.0169808,VALID,19.8575,VALID,70,VALID,0.835547,
2005-01-13, 01:00:00,VALID,918.311,VALID,0,VALID,98.2187,VALID,0,VALID,19.8446,VALID,70,VALID,0.754246,
2005-01-13, 01:01:00,VALID,918.284,VALID,0,VALID,98.1653,VALID,-0.0169808,VALID,19.8123,VALID,70,VALID,0.597852,
2005-01-13, 01:02:00,VALID,918.268,VALID,0,VALID,98.4769,VALID,-0.0169808,VALID,19.8257,VALID,70,VALID,0.485491,
2005-01-13, 01:03:00,VALID,918.266,VALID,0,VALID,98.6549,VALID,-0.0169808,VALID,19.8314,VALID,70,VALID,0.352965,
2005-01-13, 01:04:00,VALID,918.241,VALID,0,VALID,98.8177,VALID,-0.0509425,VALID,19.8612,VALID,82,VALID,0.547763,
2005-01-13, 01:05:00,VALID,918.23,VALID,0,VALID,98.9194,VALID,-0.118866,VALID,19.8652,VALID,99,VALID,0.691497,
2005-01-13, 01:06:00,VALID,918.224,VALID,0,VALID,98.9359,VALID,-0.118866,VALID,19.8652,VALID,102,VALID,0.723704,
2005-01-13, 01:07:00,VALID,918.21,VALID,0,VALID,98.9766,VALID,-0.118866,VALID,19.8523,VALID,109,VALID,0.728609,
2005-01-13, 01:08:00,VALID,918.205,VALID,0,VALID,99.0504,VALID,-0.101885,VALID,19.8525,VALID,113,VALID,0.651172,
2005-01-13, 01:09:00,VALID,918.212,VALID,0,VALID,99.1406,VALID,-0.118866,VALID,19.8463,VALID,114,VALID,0.59468,
2005-01-13, 01:10:00,VALID,918.212,VALID,0,VALID,99.2856,VALID,-0.101885,VALID,19.8491,VALID,114,VALID,0.676314,
2005-01-13, 01:11:00,VALID,918.202,VALID,0,VALID,99.3886,VALID,-0.101885,VALID,19.8396,VALID,114,VALID,0.505682,
2005-01-13, 01:12:00,VALID,918.175,VALID,0,VALID,99.3861,VALID,-0.118866,VALID,19.8396,VALID,114,VALID,0.688519,
2005-01-13, 01:13:00,VALID,918.158,VALID,0,VALID,99.4242,VALID,-0.101885,VALID,19.8329,VALID,114,VALID,0.758523,
2005-01-13, 01:14:00,VALID,918.159,VALID,0,VALID,99.4408,VALID,-0.118866,VALID,19.8103,VALID,119,VALID,0.725836,
2005-01-13, 01:15:00,VALID,918.124,VALID,0,VALID,99.5476,VALID,-0.0849042,VALID,19.8041,VALID,124,VALID,0.766197,
2005-01-13, 01:16:00,VALID,918.122,VALID,0,VALID,99.6429,VALID,-0.101885,VALID,19.7909,VALID,125,VALID,0.705543,
2005-01-13, 01:17:00,VALID,918.104,VALID,0,VALID,99.6874,VALID,-0.0849042,VALID,19.7683,VALID,128,VALID,0.866832,
2005-01-13, 01:18:00,VALID,918.076,VALID,0,VALID,99.779,VALID,-0.135847,VALID,19.7492,VALID,129,VALID,1.04111,
2005-01-13, 01:19:00,VALID,918.043,VALID,0,VALID,99.854,VALID,-0.0509425,VALID,19.7159,VALID,130,VALID,0.983445,
2005-01-13, 01:20:00,VALID,918.004,VALID,0,VALID,99.9781,VALID,0.0169808,VALID,19.699,VALID,132,VALID,1.19226,
2005-01-13, 01:21:00,VALID,917.982,VALID,0,VALID,100,VALID,0,VALID,19.6597,VALID,127,VALID,1.05777,
2005-01-13, 01:22:00,VALID,917.955,VALID,0,VALID,100,VALID,-0.0169808,VALID,19.6476,VALID,121,VALID,0.602951,
2005-01-13, 01:23:00,VALID,917.927,VALID,0,VALID,100,VALID,0,VALID,19.6187,VALID,100,VALID,0.889583,
2005-01-13, 01:24:00,VALID,917.919,VALID,0,VALID,100,VALID,0,VALID,19.5859,VALID,98,VALID,0.860102,
2005-01-13, 01:25:00,VALID,917.897,VALID,0,VALID,100,VALID,0,VALID,19.5599,VALID,98,VALID,1.27144,
2005-01-13, 01:26:00,VALID,917.87,VALID,0,VALID,100,VALID,0,VALID,19.5442,VALID,108,VALID,1.39375,
2005-01-13, 01:27:00,VALID,917.854,VALID,0,VALID,100,VALID,0,VALID,19.5243,VALID,122,VALID,1.19204,
2005-01-13, 01:28:00,VALID,917.84,VALID,0,VALID,100,VALID,0,VALID,19.5149,VALID,119,VALID,1.08521,
2005-01-13, 01:29:00,VALID,917.802,VALID,0,VALID,100,VALID,-0.0169808,VALID,19.5055,VALID,107,VALID,0.981136,
2005-01-13, 01:30:00,VALID,917.772,VALID,0,VALID,100,VALID,0,VALID,19.4828,VALID,106,VALID,0.823933,
2005-01-13, 01:31:00,VALID,917.721,VALID,0,VALID,100,VALID,0,VALID,19.4632,VALID,108,VALID,0.776344,
2005-01-13, 01:32:00,VALID,917.712,VALID,0,VALID,100,VALID,0,VALID,19.4535,VALID,120,VALID,0.883789,
2005-01-13, 01:33:00,VALID,917.686,VALID,0,VALID,100,VALID,0,VALID,19.4468,VALID,120,VALID,0.69779,
2005-01-13, 01:34:00,VALID,917.675,VALID,0,VALID,99.9929,VALID,0,VALID,19.4508,VALID,113,VALID,0.711133,
2005-01-13, 01:35:00,VALID,917.658,VALID,0,VALID,99.986,VALID,-0.0169808,VALID,19.4503,VALID,130,VALID,0.978743,
2005-01-13, 01:36:00,VALID,917.646,VALID,0,VALID,99.9227,VALID,0,VALID,19.4635,VALID,132,VALID,0.903409,
2005-01-13, 01:37:00,VALID,917.628,VALID,0,VALID,99.8489,VALID,-0.0679233,VALID,19.4739,VALID,117,VALID,0.662305,
2005-01-13, 01:38:00,VALID,917.618,VALID,0,VALID,99.7421,VALID,0,VALID,19.4868,VALID,120,VALID,0.179324,
2005-01-13, 01:39:00,VALID,917.616,VALID,0,VALID,99.6391,VALID,0,VALID,19.4796,VALID,120,VALID,0.157269,
2005-01-13, 01:40:00,VALID,917.596,VALID,0,VALID,99.5412,VALID,-0.0169808,VALID,19.4702,VALID,120,VALID,0.112179,
2005-01-13, 01:41:00,VALID,917.596,VALID,0,VALID,99.4687,VALID,0,VALID,19.4764,VALID,120,VALID,0.00223214,
2005-01-13, 01:42:00,VALID,917.587,VALID,0,VALID,99.4064,VALID,-0.0169808,VALID,19.4697,VALID,120,VALID,0,
2005-01-13, 01:43:00,VALID,917.576,VALID,0,VALID,99.4242,VALID,0,VALID,19.4761,VALID,120,VALID,0,
2005-01-13, 01:44:00,VALID,917.582,VALID,0,VALID,99.4064,VALID,-0.0339617,VALID,19.4804,VALID,120,VALID,0.0437128,
2005-01-13, 01:45:00,VALID,917.574,VALID,0,VALID,99.4408,VALID,0,VALID,19.4769,VALID,138,VALID,0.700977,
2005-01-13, 01:46:00,VALID,917.559,VALID,0,VALID,99.5005,VALID,0,VALID,19.4829,VALID,155,VALID,0.879102,
2005-01-13, 01:47:00,VALID,917.56,VALID,0,VALID,99.4776,VALID,0,VALID,19.4829,VALID,154,VALID,0.792436,
2005-01-13, 01:48:00,VALID,917.566,VALID,0,VALID,99.3734,VALID,-0.0339617,VALID,19.4833,VALID,154,VALID,0.680778,
2005-01-13, 01:49:00,VALID,917.554,VALID,0,VALID,99.2843,VALID,0,VALID,19.4702,VALID,154,VALID,0.7004,
2005-01-13, 01:50:00,VALID,917.542,VALID,0,VALID,99.1966,VALID,0,VALID,19.457,VALID,147,VALID,0.598474,
2005-01-13, 01:51:00,VALID,917.526,VALID,0,VALID,99.1216,VALID,0,VALID,19.4416,VALID,144,VALID,0.518298,
2005-01-13, 01:52:00,VALID,917.52,VALID,0,VALID,99.0453,VALID,-0.0339617,VALID,19.419,VALID,133,VALID,0.583452,
2005-01-13, 01:53:00,VALID,917.498,VALID,0,VALID,99.0351,VALID,-0.0169808,VALID,19.3961,VALID,116,VALID,0.782848,
2005-01-13, 01:54:00,VALID,917.49,VALID,0,VALID,99.1991,VALID,-0.0169808,VALID,19.381,VALID,108,VALID,0.833274,
2005-01-13, 01:55:00,VALID,917.483,VALID,0,VALID,99.2932,VALID,-0.0169808,VALID,19.345,VALID,96,VALID,0.959223,
2005-01-13, 01:56:00,VALID,917.471,VALID,0,VALID,99.236,VALID,0,VALID,19.3194,VALID,90,VALID,0.964844,
2005-01-13, 01:57:00,VALID,917.456,VALID,0,VALID,99.3835,VALID,-0.0339617,VALID,19.2836,VALID,93,VALID,0.972124,
2005-01-13, 01:58:00,VALID,917.434,VALID,0,VALID,99.4204,VALID,0,VALID,19.2712,VALID,86,VALID,0.794695,
2005-01-13, 01:59:00,VALID,917.409,VALID,0,VALID,99.4903,VALID,-0.0169808,VALID,19.2381,VALID,92,VALID,0.895833,
2005-01-13, 02:00:00,VALID,917.379,VALID,0,VALID,99.5399,VALID,-0.0169808,VALID,19.2218,VALID,99,VALID,1.14826,
2005-01-13, 02:01:00,VALID,917.357,VALID,0,VALID,99.5336,VALID,-0.0679233,VALID,19.2381,VALID,106,VALID,1.15588,
2005-01-13, 02:02:00,VALID,917.342,VALID,0,VALID,99.5107,VALID,-0.0339617,VALID,19.2679,VALID,102,VALID,1.02028,
2005-01-13, 02:03:00,VALID,917.338,VALID,0,VALID,99.339,VALID,-0.0509425,VALID,19.2605,VALID,94,VALID,0.915104,
2005-01-13, 02:04:00,VALID,917.306,VALID,0,VALID,99.119,VALID,0,VALID,19.2575,VALID,85,VALID,0.850174,
2005-01-13, 02:05:00,VALID,917.313,VALID,0,VALID,99.1839,VALID,-0.0509425,VALID,19.2675,VALID,97,VALID,0.906441,
2005-01-13, 02:06:00,VALID,917.297,VALID,0,VALID,99.2513,VALID,-0.0339617,VALID,19.2709,VALID,98,VALID,0.992006,
2005-01-13, 02:07:00,VALID,917.294,VALID,0,VALID,99.1305,VALID,-0.0849042,VALID,19.2578,VALID,106,VALID,0.824777,
2005-01-13, 02:08:00,VALID,917.282,VALID,0,VALID,99.3034,VALID,-0.0339617,VALID,19.2545,VALID,109,VALID,0.969122,
2005-01-13, 02:09:00,VALID,917.26,VALID,0,VALID,99.3466,VALID,-0.0339617,VALID,19.2806,VALID,113,VALID,0.531432,
2005-01-13, 02:10:00,VALID,917.249,VALID,0,VALID,99.2971,VALID,0,VALID,19.2901,VALID,113,VALID,0.573742,
2005-01-13, 02:11:00,VALID,917.236,VALID,0,VALID,99.3034,VALID,-0.0339617,VALID,19.3032,VALID,129,VALID,0.636896,
2005-01-13, 02:12:00,VALID,917.214,VALID,0,VALID,99.311,VALID,-0.0169808,VALID,19.303,VALID,140,VALID,0.760417,
2005-01-13, 02:13:00,VALID,917.211,VALID,0,VALID,99.4318,VALID,-0.0169808,VALID,19.3127,VALID,151,VALID,1.03686,
2005-01-13, 02:14:00,VALID,917.203,VALID,0,VALID,99.5285,VALID,-0.101885,VALID,19.3258,VALID,146,VALID,1.00977,
2005-01-13, 02:15:00,VALID,917.173,VALID,0,VALID,99.5933,VALID,-0.0509425,VALID,19.3454,VALID,140,VALID,0.711523,
2005-01-13, 02:16:00,VALID,917.187,VALID,0,VALID,99.4675,VALID,-0.0169808,VALID,19.3358,VALID,145,VALID,0.728993,
2005-01-13, 02:17:00,VALID,917.16,VALID,0,VALID,99.559,VALID,-0.0169808,VALID,19.3228,VALID,143,VALID,1.02474,
2005-01-13, 02:18:00,VALID,917.148,VALID,0,VALID,99.6137,VALID,-0.0169808,VALID,19.3166,VALID,136,VALID,0.75799,
2005-01-13, 02:19:00,VALID,917.151,VALID,0,VALID,99.6658,VALID,0.0339617,VALID,19.2829,VALID,133,VALID,0.705729,
2005-01-13, 02:20:00,VALID,917.136,VALID,0,VALID,99.7205,VALID,0.0169808,VALID,19.2891,VALID,137,VALID,0.715892,
2005-01-13, 02:21:00,VALID,917.145,VALID,0,VALID,99.8235,VALID,0.0339617,VALID,19.2794,VALID,148,VALID,0.694097,
2005-01-13, 02:22:00,VALID,917.146,VALID,0,VALID,99.924,VALID,0.0509425,VALID,19.2762,VALID,145,VALID,0.759084,
2005-01-13, 02:23:00,VALID,917.146,VALID,0,VALID,99.9326,VALID,0.0509425,VALID,19.2662,VALID,130,VALID,0.713542,
2005-01-13, 02:24:00,VALID,917.134,VALID,0,VALID,100,VALID,0.0339617,VALID,19.2794,VALID,130,VALID,0.711138,
2005-01-13, 02:25:00,VALID,917.13,VALID,0,VALID,100,VALID,0.0339617,VALID,19.2891,VALID,120,VALID,0.586617,
2005-01-13, 02:26:00,VALID,917.136,VALID,0,VALID,100,VALID,0.0849042,VALID,19.3055,VALID,131,VALID,0.688743,
2005-01-13, 02:27:00,VALID,917.141,VALID,0,VALID,99.9865,VALID,0.0849042,VALID,19.3152,VALID,134,VALID,0.532924,
2005-01-13, 02:28:00,VALID,917.143,VALID,0,VALID,99.9163,VALID,0.0849042,VALID,19.3211,VALID,139,VALID,0.794085,
2005-01-13, 02:29:00,VALID,917.148,VALID,0,VALID,99.9062,VALID,0.0169808,VALID,19.3373,VALID,139,VALID,0.867733,
2005-01-13, 02:30:00,VALID,917.146,VALID,0,VALID,99.7319,VALID,0.0339617,VALID,19.3733,VALID,140,VALID,0.797238,
2005-01-13, 02:31:00,VALID,917.154,VALID,0,VALID,99.5031,VALID,0.0509425,VALID,19.3957,VALID,133,VALID,0.675694,
2005-01-13, 02:32:00,VALID,917.13,VALID,0,VALID,99.47,VALID,0.0339617,VALID,19.4081,VALID,149,VALID,0.800781,
2005-01-13, 02:33:00,VALID,917.128,VALID,0,VALID,99.3899,VALID,0.0509425,VALID,19.4468,VALID,132,VALID,0.539971,
2005-01-13, 02:34:00,VALID,917.11,VALID,0,VALID,99.1686,VALID,0.0509425,VALID,19.4667,VALID,133,VALID,0.511446,
2005-01-13, 02:35:00,VALID,917.104,VALID,0,VALID,99.0504,VALID,0.0169808,VALID,19.4764,VALID,136,VALID,0.694315,
2005-01-13, 02:36:00,VALID,917.089,VALID,0,VALID,98.824,VALID,0.0509425,VALID,19.499,VALID,129,VALID,0.632267,
2005-01-13, 02:37:00,VALID,917.072,VALID,0,VALID,98.2073,VALID,0.0169808,VALID,19.4533,VALID,115,VALID,0.460379,
2005-01-13, 02:38:00,VALID,917.067,VALID,0,VALID,97.6338,VALID,0.0169808,VALID,19.3894,VALID,93,VALID,0.468568,
2005-01-13, 02:39:00,VALID,917.066,VALID,0,VALID,97.9148,VALID,0.0169808,VALID,19.3537,VALID,92,VALID,0.427827,
2005-01-13, 02:40:00,VALID,917.042,VALID,0,VALID,98.3472,VALID,0.0339617,VALID,19.3437,VALID,92,VALID,0.547447,
2005-01-13, 02:41:00,VALID,917.019,VALID,0,VALID,98.4667,VALID,0.0339617,VALID,19.3514,VALID,92,VALID,0.56593,
2005-01-13, 02:42:00,VALID,917.013,VALID,0,VALID,98.7465,VALID,0.0169808,VALID,19.3311,VALID,92,VALID,0.636905,
2005-01-13, 02:43:00,VALID,917.008,VALID,0,VALID,99.0338,VALID,0.0339617,VALID,19.3606,VALID,92,VALID,0.696766,
2005-01-13, 02:44:00,VALID,917.009,VALID,0,VALID,98.9423,VALID,0.0509425,VALID,19.3539,VALID,92,VALID,0.63205,
2005-01-13, 02:45:00,VALID,917.007,VALID,0,VALID,98.8469,VALID,0.0849042,VALID,19.3341,VALID,92,VALID,0.543324,
2005-01-13, 02:46:00,VALID,917.001,VALID,0,VALID,98.6485,VALID,0.0679233,VALID,19.2988,VALID,92,VALID,0.575,
2005-01-13, 02:47:00,VALID,917.023,VALID,0,VALID,98.749,VALID,0.0679233,VALID,19.267,VALID,91,VALID,0.759487,
2005-01-13, 02:48:00,VALID,917.029,VALID,0,VALID,98.9245,VALID,0.0849042,VALID,19.2377,VALID,84,VALID,0.783296,
2005-01-13, 02:49:00,VALID,917.029,VALID,0,VALID,98.9652,VALID,0.0509425,VALID,19.2185,VALID,82,VALID,0.674183,
2005-01-13, 02:50:00,VALID,917.027,VALID,0,VALID,98.9168,VALID,-0.0339617,VALID,19.2096,VALID,82,VALID,0.565358,
2005-01-13, 02:51:00,VALID,917.029,VALID,0,VALID,98.8673,VALID,-0.0339617,VALID,19.2038,VALID,82,VALID,0.624219,
2005-01-13, 02:52:00,VALID,917.024,VALID,0,VALID,98.7719,VALID,-0.0169808,VALID,19.1713,VALID,82,VALID,0.520461,
2005-01-13, 02:53:00,VALID,917.024,VALID,0,VALID,98.4718,VALID,-0.0509425,VALID,19.1196,VALID,82,VALID,0.401414,
2005-01-13, 02:54:00,VALID,917.027,VALID,0,VALID,97.9453,VALID,-0.0509425,VALID,19.0394,VALID,82,VALID,0.320494,
2005-01-13, 02:55:00,VALID,917.029,VALID,0,VALID,97.733,VALID,-0.0509425,VALID,18.9323,VALID,82,VALID,0.396802,
2005-01-13, 02:56:00,VALID,917.023,VALID,0,VALID,97.7927,VALID,-0.0679233,VALID,18.8486,VALID,82,VALID,0.452553,
2005-01-13, 02:57:00,VALID,917.007,VALID,0,VALID,98.3764,VALID,-0.0169808,VALID,18.7905,VALID,82,VALID,0.34561,
2005-01-13, 02:58:00,VALID,917.003,VALID,0,VALID,98.9397,VALID,-0.0339617,VALID,18.7446,VALID,82,VALID,0.239955,
2005-01-13, 02:59:00,VALID,917.016,VALID,0,VALID,99.4064,VALID,-0.0849042,VALID,18.7808,VALID,82,VALID,0.177379,
2005-01-13, 03:00:00,VALID,917.013,VALID,0,VALID,99.2856,VALID,-0.0679233,VALID,18.7547,VALID,82,VALID,0.209263,
2005-01-13, 03:01:00,VALID,916.997,VALID,0,VALID,99.5641,VALID,-0.0679233,VALID,18.7711,VALID,82,VALID,0,
2005-01-13, 03:02:00,VALID,916.995,VALID,0,VALID,99.9069,VALID,-0.0679233,VALID,18.7967,VALID,82,VALID,0.0250727,
2005-01-13, 03:03:00,VALID,916.989,VALID,0,VALID,100,VALID,-0.0849042,VALID,18.8414,VALID,82,VALID,0.118359,
2005-01-13, 03:04:00,VALID,916.995,VALID,0,VALID,99.3845,VALID,-0.0509425,VALID,18.7905,VALID,82,VALID,0.271289,
2005-01-13, 03:05:00,VALID,917.009,VALID,0,VALID,98.6256,VALID,-0.0339617,VALID,18.6708,VALID,81,VALID,0.461846,
2005-01-13, 03:06:00,VALID,917.023,VALID,0,VALID,98.7986,VALID,-0.0509425,VALID,18.6293,VALID,81,VALID,0.487805,
2005-01-13, 03:07:00,VALID,917.05,VALID,0,VALID,99.3568,VALID,-0.0679233,VALID,18.6156,VALID,81,VALID,0.485709,
2005-01-13, 03:08:00,VALID,917.064,VALID,0,VALID,99.9825,VALID,-0.0339617,VALID,18.6966,VALID,81,VALID,0.541061,
2005-01-13, 03:09:00,VALID,917.089,VALID,0,VALID,100,VALID,-0.0339617,VALID,18.7448,VALID,81,VALID,0.501999,
2005-01-13, 03:10:00,VALID,917.095,VALID,0,VALID,100,VALID,-0.0339617,VALID,18.8066,VALID,81,VALID,0.501999,
2005-01-13, 03:11:00,VALID,917.112,VALID,0,VALID,100,VALID,-0.0339617,VALID,18.8354,VALID,81,VALID,0.683499,
2005-01-13, 03:12:00,VALID,917.109,VALID,0,VALID,100,VALID,-0.0509425,VALID,18.8645,VALID,83,VALID,0.733507,
2005-01-13, 03:13:00,VALID,917.112,VALID,0,VALID,100,VALID,-0.0679233,VALID,18.8712,VALID,85,VALID,0.632813,
2005-01-13, 03:14:00,VALID,917.097,VALID,0,VALID,100,VALID,-0.0339617,VALID,18.8744,VALID,92,VALID,0.638579,
2005-01-13, 03:15:00,VALID,917.109,VALID,0,VALID,100,VALID,-0.0509425,VALID,18.91,VALID,96,VALID,0.560594,
2005-01-13, 03:16:00,VALID,917.086,VALID,0,VALID,100,VALID,-0.0339617,VALID,18.9296,VALID,109,VALID,0.634115,
2005-01-13, 03:17:00,VALID,917.063,VALID,0,VALID,100,VALID,-0.0679233,VALID,18.9448,VALID,113,VALID,0.505035,
2005-01-13, 03:18:00,VALID,917.051,VALID,0,VALID,100,VALID,-0.0679233,VALID,18.9487,VALID,113,VALID,0.455124,
2005-01-13, 03:19:00,VALID,917.03,VALID,0,VALID,100,VALID,-0.0339617,VALID,18.9351,VALID,113,VALID,0.517078,
2005-01-13, 03:20:00,VALID,917.004,VALID,0,VALID,100,VALID,-0.0169808,VALID,18.9286,VALID,113,VALID,0.606445,
2005-01-13, 03:21:00,VALID,916.987,VALID,0,VALID,99.9903,VALID,0,VALID,18.9023,VALID,114,VALID,0.531072,
2005-01-13, 03:22:00,VALID,916.951,VALID,0,VALID,99.9189,VALID,0,VALID,18.8993,VALID,114,VALID,0.497266,
2005-01-13, 03:23:00,VALID,916.949,VALID,0,VALID,99.779,VALID,-0.0169808,VALID,18.8869,VALID,114,VALID,0.401278,
2005-01-13, 03:24:00,VALID,916.927,VALID,0,VALID,99.6506,VALID,-0.0169808,VALID,18.8536,VALID,114,VALID,0.283482,
2005-01-13, 03:25:00,VALID,916.906,VALID,0,VALID,99.7027,VALID,-0.0169808,VALID,18.838,VALID,114,VALID,0.499628,
2005-01-13, 03:26:00,VALID,916.897,VALID,0,VALID,99.7434,VALID,0,VALID,18.8283,VALID,114,VALID,0.494855,
2005-01-13, 03:27:00,VALID,916.894,VALID,0,VALID,99.8884,VALID,0,VALID,18.8218,VALID,114,VALID,0.584985,
2005-01-13, 03:28:00,VALID,916.875,VALID,0,VALID,99.9964,VALID,0,VALID,18.8154,VALID,114,VALID,0.515443,
2005-01-13, 03:29:00,VALID,916.854,VALID,0,VALID,100,VALID,0,VALID,18.8057,VALID,114,VALID,0.416969,
2005-01-13, 03:30:00,VALID,916.859,VALID,0,VALID,100,VALID,0,VALID,18.8089,VALID,114,VALID,0.350836,
2005-01-13, 03:31:00,VALID,916.857,VALID,0,VALID,100,VALID,-0.0169808,VALID,18.8126,VALID,114,VALID,0.557736,
2005-01-13, 03:32:00,VALID,916.869,VALID,0,VALID,100,VALID,0,VALID,18.8091,VALID,114,VALID,0.638626,
2005-01-13, 03:33:00,VALID,916.882,VALID,0,VALID,100,VALID,0,VALID,18.8154,VALID,114,VALID,0.604759,
2005-01-13, 03:34:00,VALID,916.88,VALID,0,VALID,100,VALID,0,VALID,18.8156,VALID,114,VALID,0.547066,
2005-01-13, 03:35:00,VALID,916.899,VALID,0,VALID,100,VALID,-0.0169808,VALID,18.793,VALID,110,VALID,0.679129,